Location: Bottom School (historical)
(37.9078°N, 89.3593°W)
Time: 14:34:59
(UTC+00:00)

CUBEBUG 2 - Visible Passes

Search period start: 21 March 2023 00:00
Search period end: 31 March 2023 00:00
Orbit: 581 x 686 km, 97.8° (Epoch: 21 March)

Date Brightness Start Highest point End Pass type
(mag) Time Alt. Az. Time Alt. Az. Time Alt. Az.
21 Mar ? 09:12:04 10° N 09:12:16 11° N 09:12:16 11° N visible
23 Mar ? 08:18:08 10° NNE 08:18:19 11° NNE 08:18:19 11° NNE visible
24 Mar ? 08:39:28 10° N 08:40:03 13° N 08:40:03 13° N visible
25 Mar ? 09:01:00 10° N 09:01:46 14° N 09:01:46 14° N visible
26 Mar ? 09:22:46 10° NNW 09:23:29 13° NNW 09:23:29 13° NNW visible
27 Mar ? 08:07:15 10° NNE 08:07:44 13° NNE 08:07:44 13° NNE visible
27 Mar ? 09:44:55 10° NNW 09:45:10 11° NNW 09:45:10 11° NNW visible
28 Mar ? 08:28:26 10° NNE 08:29:24 16° NNE 08:29:24 16° NNE visible
29 Mar ? 08:49:50 10° N 08:51:04 18° N 08:51:04 18° N visible
30 Mar ? 09:11:26 10° N 09:12:43 17° NNW 09:12:43 17° NNW visible
